Regional Weather Roundup
Issued by NWS

Home | Current Version | Previous Version | Graphics & Text | Print | Product List | Glossary On
Versions: 1 2 3 4 5 6 7 8 9 10 11 12 13 14 15 16 17 18 19 20 21 22 23 24 25 26 27 28 29 30 31 32 33 34 35 36 37 38 39 40 41 42 43 44 45 46 47 48 49 50
000
ASUS45 KPSR 011210
RWRAZ

ARIZONA HOURLY REGIONAL WEATHER ROUNDUP
NATIONAL WEATHER SERVICE PHOENIX AZ
500 AM MST SUN MAY 01 2016

NOTE: FAIR INDICATES FEW OR NO CLOUDS BELOW 12,000 FEET WITH NO
SIGNIFICANT WEATHER AND/OR OBSTRUCTIONS TO VISIBILITY.

AZZ001>003-036-011300-
NORTHWEST ARIZONA

CITY           SKY/WX    TMP DP  RH WIND       PRES   REMARKS
BULLHEAD CITY  PTCLDY    63  48  59 N12       29.81S
KINGMAN        PTCLDY    48  42  80 E3        29.85R
6HR MIN TEMP:  45; 6HR MAX TEMP:  50;

$$

AZZ004>008-015-016-018-011300-
NORTH CENTRAL ARIZONA

CITY           SKY/WX    TMP DP  RH WIND       PRES   REMARKS
GRAND CANYON   CLOUDY    40  35  83 NE9       29.89R WCI  34
6HR MIN TEMP:  38; 6HR MAX TEMP:  42;

WILLIAMS       LGT RAIN  36  34  93 CALM      29.95S
PRESCOTT       CLOUDY    42  41  96 W3        29.86R
6HR MIN TEMP:  40; 6HR MAX TEMP:  42; 6HR PCP: TRACE;

FLAGSTAFF      MIX PCPN  33  33 100 S5        29.86F WCI  29
6HR MIN TEMP:  32; 6HR MAX TEMP:  33; 6HR PCP:  0.44;

PAYSON         MOCLDY    41  37  87 CALM      29.88R
PAGE           CLOUDY    49  34  56 NW3       29.87S
6HR MIN TEMP:  48; 6HR MAX TEMP:  51;

$$

AZZ009>014-017-011300-
NORTHEAST ARIZONA

CITY           SKY/WX    TMP DP  RH WIND       PRES   REMARKS
WINSLOW        CLOUDY    42  38  85 SE8       29.87R
6HR MIN TEMP:  40; 6HR MAX TEMP:  45; 6HR PCP:  0.23;

SAINT JOHNS    CLEAR     37  35  92 CALM      29.86S
6HR MIN TEMP:  36; 6HR MAX TEMP:  45; 6HR PCP:  0.07;

WINDOW ROCK    CLOUDY    35  32  88 SE5       29.91R WCI  31
6HR MIN TEMP:  34; 6HR MAX TEMP:  40; 6HR PCP:  0.61;

SHOW LOW       CLEAR     36  32  87 S13       29.88S WCI  27
$$

AZZ023-011300-
GREATER PHOENIX AREA

CITY           SKY/WX    TMP DP  RH WIND       PRES   REMARKS
PHOENIX        MOCLDY    59  47  64 E10       29.75S
6HR MIN TEMP:  59; 6HR MAX TEMP:  63;

BUCKEYE        CLEAR     52  52 100 N7        29.78R
LUKE AFB       CLOUDY    55  48  76 NW5       29.76R
6HR MIN TEMP:  55; 6HR MAX TEMP:  62; 6HR PCP: TRACE;

DEER VALLEY    MOCLDY    56  44  64 NE6       29.77R
6HR MIN TEMP:  55; 6HR MAX TEMP:  59;

SCOTTSDALE     PTCLDY    56  48  74 CALM      29.78R
6HR MIN TEMP:  55; 6HR MAX TEMP:  60;

MESA-GATEWAY   CLOUDY    57  46  67 SE6       29.78S
$$

AZZ027-028-011300-
SOUTHWEST MARICOPA COUNTY AND PINAL COUNTY

CITY           SKY/WX    TMP DP  RH WIND       PRES   REMARKS
CASA GRANDE    CLOUDY    59  45  58 E6        29.80R
6HR MIN TEMP:  59; 6HR MAX TEMP:  61;

GILA BEND      CLOUDY    57  52  83 NE6       29.75R
6HR MIN TEMP:  57; 6HR MAX TEMP:  60; 6HR PCP: TRACE;

$$

AZZ503-504-507>509-011300-
SOUTHEAST ARIZONA

CITY           SKY/WX    TMP DP  RH WIND       PRES   REMARKS
TUCSON         CLEAR     55  36  48 SE10      29.84R
6HR MIN TEMP:  55; 6HR MAX TEMP:  62;

DAVIS-MONTHAN  PTCLDY    52  36  55 S8        29.82R
6HR MIN TEMP:  51; 6HR MAX TEMP:  59;

NOGALES        CLEAR     47  36  65 S3        29.85S
6HR MIN TEMP:  46; 6HR MAX TEMP:  55;

SIERRA VISTA   CLEAR     50  35  57 S13       29.87S
6HR MIN TEMP:  50; 6HR MAX TEMP:  54;

DOUGLAS        CLEAR     50  35  56 NE3       29.88R
6HR MIN TEMP:  49; 6HR MAX TEMP:  57;

SAFFORD        PTCLDY    48  41  76 S5        29.83R
6HR MIN TEMP:  48; 6HR MAX TEMP:  60;

$$

AZZ020-021-025-026-031-011300-
SOUTHWEST ARIZONA

CITY           SKY/WX    TMP DP  RH WIND       PRES   REMARKS
YUMA           CLEAR     63  46  54 NE3       29.76R
6HR MIN TEMP:  61; 6HR MAX TEMP:  68;

$$

CAZ031-033-041-043-047-048-061-011300-
SOUTHERN CALIFORNIA

CITY           SKY/WX    TMP DP  RH WIND       PRES   REMARKS
DOWNTOWN L.A.  PTCLDY    59  52  77 E3        29.85S
6HR MIN TEMP:  58; 6HR MAX TEMP:  59;

L.A. AIRPORT   PTCLDY    56  51  84 E6        29.86R
6HR MIN TEMP:  56; 6HR MAX TEMP:  60;

SAN DIEGO      MOCLDY    60  51  72 E5        29.88R
6HR MIN TEMP:  60; 6HR MAX TEMP:  62;

BURBANK        CLOUDY    54  46  74 CALM      29.85R
6HR MIN TEMP:  54; 6HR MAX TEMP:  59;

ONTARIO        PTCLDY    53  46  77 CALM      29.85S
6HR MIN TEMP:  52; 6HR MAX TEMP:  58;

RIVERSIDE      MOCLDY    52  47  83 CALM      29.86R
6HR MIN TEMP:  52; 6HR MAX TEMP:  59;

PALM SPRINGS   PTCLDY    60  48  64 CALM      29.79S
6HR MIN TEMP:  60; 6HR MAX TEMP:  70;

EL CENTRO NAS  PTCLDY   N/A N/A N/A W10       29.77R
IMPERIAL       CLEAR     60  46  59 W6        29.75R
6HR MIN TEMP:  60; 6HR MAX TEMP:  69;

BLYTHE         CLEAR     61  46  57 N3        29.77R
6HR MIN TEMP:  55; 6HR MAX TEMP:  65;

NEEDLES        PTCLDY    60  50  69 NW6       29.79R
6HR MIN TEMP:  60; 6HR MAX TEMP:  64;

$$

NVZ020-UTZ003-011300-
SOUTHERN NEVADA-UTAH

CITY           SKY/WX    TMP DP  RH WIND       PRES   REMARKS
LAS VEGAS      MOCLDY    55  48  77 SW6       29.81S
6HR MIN TEMP:  54; 6HR MAX TEMP:  61;

SALT LAKE CITY MOCLDY    50  22  33 E18G32    30.02F
6HR MIN TEMP:  49; 6HR MAX TEMP:  52;

$$

NMZ009-TXZ055-011300-
NEW MEXICO-WEST TEXAS

CITY           SKY/WX    TMP DP  RH WIND       PRES   REMARKS
ALBUQUERQUE    CLOUDY    41  30  65 E35G48    29.95S
6HR MIN TEMP:  41; 6HR MAX TEMP:  47; 6HR PCP: TRACE;

EL PASO        PTCLDY    53  36  52 N10       29.91R
6HR MIN TEMP:  53; 6HR MAX TEMP:  69;

$$


........................KEY........................
SKY/WX - SKY CONDITION/WEATHER
TMP    - TEMPERATURE IN FAHRENHEIT
DP     - DEW POINT IN FAHRENHEIT
RH     - RELATIVE HUMIDITY IN PERCENT
WIND   - DIRECTION AND SPEED IN MILES PER HOUR (MPH)
VRB    - VARIABLE WIND DIRECTION
PRES   - MEAN SEA LEVEL PRESSURE IN INCHES OF MERCURY
         F - FALLING PRESSURE   R - RISING PRESSURE
         S - STEADY PRESSURE
VSB    - VISIBILITY IN MILES
HX     - HEAT INDEX IN FAHRENHEIT
WCI    - WIND CHILL INDEX IN FAHRENHEIT
TC     - TEMPERATURE IN CELSIUS WHICH IS ALSO KNOWN AS
         TEMPERATURE IN CENTIGRADE
AFB    - AIR FORCE BASE
         LUKE AFB IS LUKE AIR FORCE BASE
         DAVIS-MONTHAN IS DAVIS-MONTHAN AIR FORCE BASE
NAS    - NAVAL AIR STATION
         EL CENTRO NAS IS EL CENTRO NAVAL AIR STATION
N/A    - NOT AVAILABLE




USA.gov is the U.S. government's official web portal to all federal, state and local government web resources and services.